User: anonymous   Login
Location: Edemissen
(51.7689°N, 9.8634°E)
Time: 03:07:35
(UTC+00:00)
Language:

NOAA 19 - Orbit

View from above orbital plane
View from above orbital plane
View from above satellite
View from above satellite

Ground track
Ground track

The orbit is defined by the following mean orbital elements,

1 33591U          26138.81506523 +.00000000 +00000-0 +38926-4 0 00006
2 33591  98.9526 209.6672 0014803 112.2464 248.0279 14.13469096    05
Epoch (UTC): 18 May 2026 19:33:41
Eccentricity: 0.0014803
inclination: 98.9526°
perigee height: 837 km
apogee height: 858 km
right ascension of ascending node: 209.6672°
argument of perigee: 112.2464°
revolutions per day: 14.13469096
mean anomaly at epoch: 248.0279°

The dashed part of the orbit path shows where the satellite is in the earth's shadow,  

DLR